EHI
2 6 9 8 5 5 10 19 39 67 87 96 99 99 95 83 63 43 25 11 5 3 3 2 2 7 18 23 18 12 5 1 0 0 0 0 0 0 0 0 0 0 0
6 14 22 21 18 18 21 26 41 66 85 94 97 95 88 72 53 38 25 15 10 7 8 5 4 14 28 30 22 14 6 1 0 0 0 0 0 0 0 0 0 0 0
11 25 41 44 39 35 32 31 45 67 82 90 92 89 77 57 37 28 24 19 13 12 12 10 9 21 35 35 24 14 5 1 0 0 0 0 0 0 0 0 0 0 0
13 31 51 53 45 39 29 28 43 62 70 72 75 72 59 38 21 16 17 16 13 13 15 15 15 23 34 32 19 9 3 0 0 0 0 0 0 0 0 0 0 0 0
12 29 46 46 39 31 22 22 35 45 44 41 45 44 32 19 10 7 8 10 12 14 17 18 17 21 26 22 11 4 1 0 0 0 0 0 0 0 0 0 0 0 0
11 26 43 48 41 28 18 19 25 26 20 17 20 18 12 7 5 5 5 8 12 13 14 15 16 16 17 14 8 4 3 1 0 0 0 0 0 0 0 0 0 0 0
21 31 44 49 40 23 14 14 16 13 8 7 7 7 5 4 3 5 6 7 10 11 9 9 12 14 14 14 11 8 4 2 0 0 0 0 0 0 0 0 0 0 0
31 34 36 34 26 15 9 10 10 7 4 3 2 2 4 3 2 3 4 5 7 8 6 5 8 12 14 13 13 8 3 1 0 0 0 0 0 0 0 0 0 0 0
23 22 19 15 14 13 11 10 10 8 5 1 0 1 2 2 1 1 2 3 4 4 3 3 6 9 10 9 7 4 1 0 0 0 0 0 1 0 0 0 0 0 0
7 7 6 6 12 22 25 23 21 18 9 2 0 0 0 1 0 0 0 1 2 3 2 1 3 5 5 4 2 1 0 0 0 0 0 0 0 0 0 0 0 0 0
1 1 1 4 15 36 49 48 41 31 17 7 2 1 0 1 1 0 1 2 2 2 1 0 1 1 1 1 0 0 0 0 0 0 0 0 0 0 0 0 0 0 0
0 0 0 4 17 40 62 69 61 47 31 17 8 4 2 2 2 2 2 2 3 2 1 0 0 0 0 0 0 0 0 0 0 0 0 0 0 0 0 0 0 0 0
0 0 0 4 14 30 51 68 70 61 51 36 20 11 8 8 8 6 4 2 2 2 2 2 1 0 0 0 0 0 0 0 0 0 0 0 0 0 0 0 0 0 0
0 0 0 3 9 17 31 51 64 67 68 60 44 28 20 22 21 14 7 3 1 2 3 4 3 2 1 0 0 0 0 0 0 0 0 0 0 0 0 0 0 0 0
5 4 3 3 6 12 23 42 58 67 72 70 61 49 40 44 43 28 14 7 4 2 2 4 5 4 2 0 0 0 0 0 0 0 0 0 0 0 0 0 0 0 0
17 17 15 12 12 18 32 47 58 65 67 67 69 67 63 67 67 51 31 19 14 8 3 2 4 4 2 0 0 0 0 0 0 0 0 0 0 0 0 0 0 0 0
22 23 24 23 23 27 36 46 51 56 60 65 74 78 78 80 79 67 45 30 22 14 5 2 2 3 1 0 0 0 0 0 0 0 0 0 0 0 0 0 0 0 0
15 16 18 21 23 23 25 28 32 36 44 54 63 68 70 73 71 59 41 28 19 12 5 2 2 3 2 0 0 0 0 0 0 0 0 0 0 0 0 0 0 0 0
6 7 8 10 11 11 11 12 13 16 21 28 33 38 43 47 46 36 25 17 11 7 3 1 1 3 2 1 0 0 0 0 0 0 0 0 0 0 0 0 0 0 0
2 2 3 3 3 3 2 3 4 4 5 8 11 14 18 20 20 15 10 8 6 4 2 1 1 2 2 1 0 0 0 0 0 0 0 0 0 0 0 0 0 0 0
0 0 0 0 1 1 0 0 1 1 1 1 2 4 6 6 5 3 2 2 2 2 1 0 0 1 1 0 0 0 0 0 0 0 0 0 0 0 0 0 0 0 0
0 0 0 0 0 0 0 0 0 0 0 0 0 1 1 1 1 0 0 0 1 1 1 0 0 0 0 0 0 0 0 0 0 0 0 0 0 0 0 0 0 0 0
0 0 0 0 0 0 0 0 0 0 0 0 0 0 0 0 0 0 0 0 0 0 0 0 0 0 0 0 0 0 0 0 0 0 0 0 0 0 0 0 0 0 0
0 0 0 0 0 0 0 0 0 0 0 0 0 0 0 0 0 0 0 0 0 0 0 0 0 0 0 0 0 0 0 0 0 0 0 0 0 0 0 0 0 0 0
0 0 0 0 0 0 0 0 0 0 0 0 0 0 0 0 0 0 0 0 0 0 0 0 0 0 0 0 0 0 0 0 0 0 0 0 0 0 0 0 0 0 0
0 0 0 0 0 0 0 0 0 0 0 0 0 0 0 0 0 0 0 0 0 0 0 0 0 0 0 0 0 0 0 0 0 0 0 0 0 0 0 0 0 0 0
Wind_Speed
11 10 8 7 5 3 3 4 5 6 6 5 5 4 3 3 3 3 4 5 4 5 5 5 5 3 4 4 4 3 4 2 2 3 2 1 1 4 2 2 4 4 4
7 9 9 8 6 5 3 3 4 4 5 4 4 4 4 3 4 4 4 5 5 5 4 6 4 2 4 5 4 4 3 1 1 3 2 1 1 1 2 2 3 4 3
5 12 11 9 7 6 5 3 4 6 5 5 3 3 3 2 3 4 4 5 6 6 5 5 5 4 4 4 4 4 5 2 1 2 3 3 3 2 1 4 3 4 3
4 11 11 10 8 8 6 5 5 6 5 5 3 4 4 4 5 4 5 5 6 6 5 5 5 5 5 6 5 5 4 4 3 2 3 3 4 4 3 2 3 5 4
6 11 11 10 10 9 6 6 7 6 5 4 4 4 4 4 3 4 6 6 5 6 6 6 6 5 5 6 6 5 6 5 4 4 3 4 2 3 4 3 3 3 3
7 11 11 10 10 8 6 6 6 6 4 4 5 6 5 4 3 2 3 3 3 3 6 6 6 5 5 6 7 7 7 7 6 5 5 4 2 2 2 3 4 4 4
9 11 12 10 9 8 6 6 7 6 4 4 6 6 5 3 3 3 3 3 2 3 4 5 5 5 5 6 6 7 7 8 8 7 5 4 3 2 1 2 3 3 3
9 11 11 9 8 8 7 7 7 6 5 3 3 2 6 2 0 2 2 2 2 2 3 4 4 5 5 5 5 5 6 6 7 7 6 4 3 2 1 1 3 2 2
9 10 11 10 9 8 7 7 7 6 6 4 2 1 2 3 1 2 2 2 2 2 3 3 3 3 4 4 5 4 5 5 6 6 5 4 3 2 2 1 2 4 3
8 9 10 10 9 9 8 7 7 7 6 5 4 3 1 2 1 0 2 2 3 4 4 3 4 4 4 4 4 3 4 5 5 5 5 4 2 2 2 1 0 2 3
5 1 5 8 9 10 9 7 7 7 6 6 5 5 4 3 3 2 3 3 3 4 5 5 4 4 4 4 4 3 3 4 4 4 5 4 3 2 1 1 1 1 1
2 3 3 5 6 9 10 10 8 8 7 6 5 6 5 4 3 3 4 4 4 5 5 6 6 6 5 5 5 5 4 4 4 5 5 5 3 2 1 1 1 1 2
6 4 2 3 4 5 7 9 9 9 8 7 5 5 5 5 5 4 4 4 5 5 5 6 6 6 6 6 6 5 5 5 5 4 5 5 5 3 2 1 1 2 2
7 5 2 1 3 3 5 7 8 7 8 8 6 5 4 4 4 4 4 4 5 5 6 7 7 7 7 7 7 6 6 6 5 5 5 5 5 5 4 3 3 2 3
7 5 3 1 2 3 2 3 5 7 8 7 6 6 5 5 4 4 4 5 4 4 5 6 7 7 7 7 8 7 8 7 6 6 6 6 8 8 6 4 4 4 3
11 9 7 4 3 3 3 3 3 4 5 5 5 4 2 3 4 3 3 4 4 3 3 4 5 7 6 9 11 7 6 7 8 8 7 8 9 12 13 12 10 7 6
14 13 12 10 9 7 6 6 5 5 4 4 4 4 1 0 1 2 3 3 3 4 4 4 4 5 6 11 11 9 3 3 4 6 7 7 8 11 8 11 13 12 14
13 12 11 11 11 10 9 8 9 8 8 7 6 5 4 3 2 2 3 4 4 4 4 5 4 4 8 12 11 9 4 4 4 5 5 6 6 8 8 7 7 7 8
9 9 9 9 9 10 9 9 10 9 9 8 6 6 5 4 4 3 4 3 4 4 4 4 4 4 6 11 11 9 4 4 5 5 4 3 3 4 7 5 5 5 5
7 7 8 8 8 8 9 10 9 8 7 6 6 5 4 4 4 4 4 3 3 3 3 3 4 4 5 10 12 10 3 3 3 2 1 2 2 3 4 3 4 5 4
6 6 6 6 6 7 8 8 7 6 5 5 5 5 4 4 3 4 4 4 3 3 3 3 3 3 4 10 11 9 2 1 1 1 1 0 4 3 3 4 3 4 3
4 4 4 5 5 6 6 6 4 3 3 3 3 4 4 5 5 4 4 4 3 3 3 3 3 2 2 5 6 7 4 1 2 1 1 2 4 2 2 2 2 2 1
3 2 2 2 3 4 5 4 3 3 2 2 2 3 4 4 5 5 5 4 3 3 2 2 2 2 1 3 6 5 4 3 1 1 2 4 4 2 1 2 2 2 1
2 0 1 1 3 2 3 4 3 4 2 2 2 4 4 5 5 5 5 4 5 4 3 2 2 1 0 2 2 2 2 3 2 2 2 3 2 1 1 3 2 2 1
2 1 2 1 2 3 3 4 3 5 3 3 3 4 4 3 4 5 5 5 6 5 4 4 3 2 2 3 4 2 2 1 0 1 3 2 2 2 2 2 2 1 1
2 3 2 3 1 3 3 4 2 4 4 4 4 2 2 2 2 3 4 8 7 10 12 11 7 6 7 6 6 6 5 3 3 1 1 2 2 2 2 2 1 1 1
Wind_Direction
197 184 151 132 137 154 167 157 146 155 149 143 147 148 162 160 160 177 193 201 211 213 183 166 201 190 150 152 155 129 124 123 143 88 68 354 338 105 143 122 105 103 123
196 143 131 134 146 136 119 118 134 140 140 141 149 159 165 180 187 189 203 205 213 220 195 174 177 165 136 145 145 121 131 152 154 127 134 193 319 313 171 114 140 162 164
168 139 135 128 121 115 108 83 89 107 104 117 120 137 142 182 197 198 206 210 208 216 201 193 176 169 149 152 152 142 145 168 228 159 157 174 196 201 199 188 187 140 140
157 134 133 128 127 115 113 125 110 110 114 125 145 161 174 194 206 200 201 210 211 213 204 200 188 176 160 161 171 163 154 157 205 256 238 213 169 162 184 211 182 161 173
146 132 132 130 125 121 130 122 115 119 135 156 157 182 197 208 217 203 194 202 208 210 203 202 198 190 170 171 173 169 166 169 184 218 254 264 229 202 147 182 193 172 176
140 129 125 120 115 118 120 117 122 117 132 158 176 196 198 201 204 183 184 193 193 206 210 206 201 197 183 181 181 180 179 183 187 205 229 239 228 233 158 167 180 181 193
131 126 124 120 124 134 139 134 127 134 160 194 210 195 174 197 211 182 176 177 186 197 212 206 203 199 195 189 184 184 186 186 189 200 218 229 238 245 218 158 173 176 183
118 127 132 134 142 148 150 148 147 157 167 209 251 215 146 155 144 115 134 164 164 173 187 196 197 193 190 190 189 188 190 188 188 196 206 217 226 255 260 167 148 144 182
133 141 144 149 154 156 160 163 158 159 166 194 221 324 87 129 127 152 146 126 138 157 157 159 164 167 173 181 183 191 191 186 189 187 195 208 206 235 267 238 150 150 173
158 162 158 160 162 161 167 173 165 166 175 188 182 136 93 123 119 64 126 140 134 122 132 142 146 154 161 175 178 174 179 182 187 179 182 186 187 208 253 273 217 148 162
2 326 168 166 164 164 169 171 170 171 178 188 172 151 187 179 167 185 152 147 148 150 158 153 153 155 158 162 160 161 167 182 185 172 165 166 166 200 227 271 290 247 175
327 276 223 173 167 170 173 175 177 182 178 182 174 173 174 158 178 200 174 175 172 167 167 158 165 168 167 168 166 166 164 164 166 160 153 152 155 178 202 250 262 262 244
319 292 244 167 170 177 177 177 182 186 175 174 181 172 173 178 189 206 179 184 184 176 172 165 169 174 174 175 175 174 171 170 165 162 160 159 159 172 184 209 241 256 269
315 312 314 198 173 190 195 183 182 174 166 168 175 180 184 178 178 202 189 199 205 188 181 176 176 178 178 179 177 178 178 178 177 177 178 178 178 184 184 203 223 236 252
333 316 292 230 165 187 202 177 169 161 164 163 168 175 191 178 183 210 208 203 219 209 190 182 178 176 179 184 181 184 185 188 190 193 199 202 202 207 206 209 213 218 225
8 7 6 31 61 96 91 85 103 125 144 158 161 155 173 170 179 210 237 215 205 222 226 198 182 178 184 173 174 182 191 195 198 201 206 210 211 219 223 227 228 223 224
17 22 26 33 44 59 72 73 67 63 65 74 87 92 77 32 188 226 246 247 219 217 233 232 200 180 162 165 170 183 197 209 210 205 205 214 214 210 215 226 234 239 240
18 19 24 33 42 48 54 60 58 52 45 43 43 41 25 10 342 293 269 255 239 223 226 241 225 179 171 173 174 176 198 230 240 233 223 214 213 202 204 213 219 229 236
16 16 25 35 39 43 46 56 59 52 44 34 31 30 18 3 341 315 299 284 272 251 227 226 226 201 171 175 172 167 194 228 246 246 237 227 232 195 190 200 219 237 249
13 18 26 32 39 42 48 55 55 51 41 29 29 23 12 352 335 325 313 304 295 286 262 238 218 200 180 180 179 179 193 225 248 263 253 207 190 154 172 205 221 230 238
20 28 35 28 33 46 57 56 51 49 40 26 22 14 7 352 3 351 336 329 322 313 299 281 253 225 186 175 182 182 203 234 275 299 296 117 150 170 200 225 236 235 231
41 34 43 37 32 38 61 69 45 33 53 40 26 18 20 15 13 3 354 352 351 335 315 308 296 273 148 156 185 189 204 323 327 314 321 118 139 164 214 230 202 195 196
74 50 66 79 63 43 42 58 39 355 22 43 39 42 43 48 30 17 10 6 4 354 336 322 298 283 145 136 160 186 202 217 266 19 70 124 143 150 201 190 175 193 209
104 153 273 135 106 85 68 62 8 327 340 65 65 69 51 49 49 31 19 20 14 6 353 344 325 307 100 113 133 181 196 205 213 194 129 125 120 300 307 155 201 235 182
127 143 300 314 114 96 82 73 14 328 343 47 69 85 82 71 71 64 39 28 43 32 16 3 14 25 56 45 50 48 43 25 293 171 151 171 182 212 222 206 197 189 158
152 167 243 280 67 85 87 95 38 334 14 45 37 48 89 93 102 120 99 57 56 51 49 43 46 55 57 60 61 62 54 35 26 66 193 216 224 215 205 191 174 167 176